Weather in Kallithea

Greece     40°04′28″N   23°26′52″E
temp.,
°C
wind,
m/s
gust,
m/s
humid.,
%
clouds,
%
prec.,
mm/h
press.,
hPa
HPBL,
m
20 june, sun
sun2000:00+23w22775 0.0 101261
03:00+23nnw22765 0.0 101134
06:00+22nne22780 0.0 1011147
09:00+24ne11670 0.8 1012408
12:00+26se32616 0.1 1012975
15:00+26sse64612 0.1 1011880
18:00+25se446614 0.0 1011511
21:00+23se45743 0.0 1011296
21 june, mon
mon2100:00+22se347757 0.0 1011229
03:00+22ese22784 0.0 1011119
06:00+21ene01780 0.0 101177
09:00+24nnw11651 0.0 1012369
12:00+27s01560 0.0 1012703
15:00+28sse325326 0.0 1011812
18:00+27sse43595 0.0 1010517
21:00+24wnw6878100 0.8 1013389
22 june, tue
tue2200:00+22nnw3478100 0.0 1012249
03:00+22w45795 0.0 1011239
06:00+22nw33790 0.0 1011128
09:00+24nw12640 0.0 1012284
12:00+27nnw11540 0.0 1013464
15:00+29s11490 0.0 1012576
18:00+28se43560 0.0 1011422
21:00+25se46740 0.0 1013202
23 june, wed
wed2300:00+24e2277100 0.1 101360
03:00+24wsw1175100 0.1 101311
06:00+24w11750 0.0 101311
09:00+26nnw11650 0.0 1014181
12:00+29wnw11530 0.0 1014380
15:00+31s11480 0.0 1013467
18:00+31se33510 0.0 1013372
21:00+26ssw3370100 0.0 101493
24 june, thu
thu2400:00+25ne22730 0.0 101541
03:00+25sse11745 0.0 101511
06:00+24wnw22770 0.0 101517
09:00+27w22664 0.0 1016170
12:00+31sw01520 0.0 1016439
15:00+32sse32440 0.0 1015670
18:00+31se445131 0.0 1014327
21:00+27se346710 0.0 1015112